Showing default

XM-4, 29520

Orbit data source: Space-Track

XM-4, 29520 is a payload satellite owned by XM Radio (US) in GEO that was launched on Mon, 30 Oct 2006 UTC via a ZENIT-3SL launch vehicle from the Sea Launch (SEAL). Payload-class satellites include a variety of spacecraft equipped with specific instruments for various scientific and technological missions. These include communications satellites like Starlink; space stations such as the ISS; scientific satellites like the Hubble; Earth observation satellites from companies like Planet Labs, Umbra, and HawkEye 360; GPS; miniature CubeSats for education and research; and military/defense satellites.

Loading next visibility...
Identifier
29520, 2006-049A
Orbit
GEO
Country
Flag of USUS
Related business
Manufacturer
Boeing/ES
Mission
Non-operational Commercial Communications
Bus & Motor
BSS-702HP, R-4D-11-300
Mass
5,193 kg wet, ~2,700 kg dry
Launch date (UTC)
2006-10-30 (19 years ago)
Launch vehicle
ZENIT-3SL
Launch site
Sea Launch (SEAL)
Object type
Payload
Rocket body
Debris
Shape & HBR
Box + 2 Pan, 20.2 m
Radar Cross Section
61.334 m², Large (>1 m²)

Expand to show TLE details & history
Last TLE update: 3 hours ago

TLE from 3 hours ago
0 XM-4
1 29520U 06049A   26038.21610213  .00000051  00000-0  00000+0 0  9997
2 29520   2.5132  82.7262 0008207 281.4200  81.5614  0.98813002 50061
Epoch: 2026-02-07T05:11Z
TLE epoch observation values (Epoch: 2026-02-07T05:11:11.224Z)
Latitude
0.12826°
Longitude
-129.31455°
Altitude
36,195.128 km
Speed
3.06 km/s
True Right ascension
05h 43m 18s
True Declination
0° 07' 41"
Sunlit
Object was in daylight at epoch
Visualization orbit readout
Latitude
Unknown
Longitude
Unknown
Altitude
Unknown
Speed
Unknown
Apparent Right ascension
Unknown
Apparent Declination
Unknown
Sunlit
N/A
Visualization observer readout
Local Sidereal Time
10:02:10
Azimuth
Unknown
Elevation
Unknown
Doppler factor
Unknown
Orbital elements
Apogee altitude
36,236.57 km
Perigee altitude
36,166.68 km
Semi-major axis
42,579.762 km
Eccentricity
0.00082
Inclination
2.5132°
RAAN
82.7262°
Arg. of periapsis
281.42°
True anomaly
81.65444°
Mean anomaly
81.5614°
Eccentric anomaly
81.60792°
Mean motion
0.24702 °/min
Orbital period
1,457.35 mins
BSTAR
0
Loading maneuver chart data...
Computing Atmospheric mass density...
Loading historical data...
Loading historical data...
Loading historical data...
Loading historical data...
Loading historical data...
Loading historical data...
Loading historical data...
Other satellites on launch #49 in the year 2006 (2006-10-30 UTC)

Documentation

Showing up to 5 results
|